Regional Weather Roundup
Issued by NWS

Home | Current Version | Previous Version | Graphics & Text | Print | Product List | Glossary On
Versions: 1 2 3 4 5 6 7 8 9 10 11 12 13 14 15 16 17 18 19 20 21 22 23 24 25 26 27 28 29 30 31 32 33 34 35 36 37 38 39 40 41 42 43 44 45 46 47 48 49 50
000
ASUS45 KTFX 022310
RWRMT
MONTANA REGIONAL WEATHER ROUNDUP
NATIONAL WEATHER SERVICE GREAT FALLS MT
500 PM MDT THU JUL 02 2015

NOTE: "FAIR" INDICATES FEW OR NO CLOUDS BELOW 12000 FEET WITH NO
SIGNIFICANT WEATHER AND/OR OBSTRUCTIONS TO VISIBILITY.

MTZ001>007-043-030000-
WEST OF THE DIVIDE

CITY           SKY/WX    TMP DP  RH WIND       PRES   REMARKS
KALISPELL      CLEAR     91  48  22 VRB5      29.99F
MISSOULA       SUNNY     94  40  15 NW14      29.99F HX  90
BUTTE          SUNNY     86  32  14 CALM      30.15F
MULLAN PASS    SUNNY     80  42  25 NW6       30.22F
DEER LODGE       N/A     86  41  20 NE6       30.13F
EUREKA           N/A     93  46  20 CALM      29.98F
HAMILTON         N/A     90  50  25 N8        30.01F
PLAINS           N/A     98  49  19 CALM      29.96F HX  94
RONAN            N/A     91  49  23 S6        30.06F
$$

MTZ008-052>055-030000-
SOUTHWEST MONTANA

CITY           SKY/WX    TMP DP  RH WIND       PRES   REMARKS
BOZEMAN        SUNNY     89  42  19 NW8       30.09F
DILLON         SUNNY     87  42  20 CALM      30.11F
W YELLOWSTONE  SUNNY     82  28  14 W12G20    30.22S
THREE FORKS      N/A     88  41  19 E5        30.07F
TWIN BRIDGES     N/A     87  46  23 W7        30.08F
$$

MTZ009-010-012-014-046-048-049-054-030000-
EAST SLOPES AND CENTRAL MONTANA

CITY           SKY/WX    TMP DP  RH WIND       PRES   REMARKS
CUT BANK       SUNNY     84  46  26 S6        30.09F
GREAT FALLS    SUNNY     85  49  28 E12G18    30.09F
MALMSTROM AFB  SUNNY     84  46  26 E13       30.09F
HELENA         SUNNY     89  45  21 S5        30.05F
$$

MTZ011-013-016-021-045-047-050-051-030000-
NORTH CENTRAL MONTANA

CITY           SKY/WX    TMP DP  RH WIND       PRES   REMARKS
HAVRE          MOSUNNY   85  52  32 VRB6      30.05F
LEWISTOWN      SUNNY     81  49  32 N5        30.15F
CHINOOK          N/A     84  54  34 CALM      30.06F
FORT BENTON      N/A     84  50  30 NE3       30.07F
$$

MTZ017>020-022>027-061-062-030000-
NORTHEAST MONTANA

CITY           SKY/WX    TMP DP  RH WIND       PRES   REMARKS
GLASGOW        PTSUNNY   81  54  39 NW9       30.03F
JORDAN           N/A     80  56  43 N10G18    30.06F
SIDNEY         SUNNY     81  57  44 N14       30.02R
WOLF POINT     MOSUNNY   84  58  40 NW7       30.01F
MALTA            N/A     82  54  38 NE1       30.02F
PLENTYWOOD       N/A     81  57  44 NW6G28    30.00F
SCOBEY           N/A     79  57  46 NW6       30.02F
$$

MTZ028>42-056>058-030000-
SOUTHCENTRAL AND SOUTHEAST MONTANA

CITY           SKY/WX    TMP DP  RH WIND       PRES   REMARKS
BAKER          MOSUNNY   78  56  46 N7        30.06F
BILLINGS       MOSUNNY   83  49  30 NE13      30.10F
LIVINGSTON     SUNNY     87  45  23 NE9       30.11F
MILES CITY     MOSUNNY   83  54  36 NW9       30.04F
EKALAKA          N/A     76  54  46 N8        30.07F
FORSYTH          N/A     81  52  36 N8        30.05F
LAUREL           N/A     84  50  30 NE2       30.08F
ROUNDUP          N/A     82  48  30 N8        30.02F
$$

REGIONAL REPORTS...DAKOTAS

CITY           SKY/WX    TMP DP  RH WIND       PRES   REMARKS
WILLISTON      SUNNY     84  57  39 NW8G18    30.00S
MINOT          CLOUDY    78  63  59 NW10      29.95S HAZE
DICKINSON      SUNNY     80  58  46 N10       30.01F
BEACH          FAIR      77  59  53 N7        30.05F HAZE
CROSBY         FAIR      77  66  69 NW9       30.00S
BISMARCK       MOSUNNY   79  60  52 NW12      29.97S HAZE
GRAND FORKS    CLOUDY    76  66  71 SW9       29.89F
FARGO          MOSUNNY   75  54  47 S12       29.94R
BUFFALO SD       N/A     79  55  43 N10       30.00S
RAPID CITY     SUNNY     79  56  45 N22       30.06F
$$

REGIONAL REPORTS...WYOMING/IDAHO/WASHINGTON

CITY           SKY/WX    TMP DP  RH WIND       PRES   REMARKS
GILLETTE       MOSUNNY   77  54  44 NE14      30.14F
SHERIDAN       PTSUNNY   80  53  39 N8        30.12F
BUFFALO WY     LGT RAIN  74  56  53 NW12      30.19F
CODY           SUNNY     81  50  34 N15       30.16F
YELLOWSTONE LA   N/A     75  35  23 CALM      30.32S
IDAHO FALLS    SUNNY     95  38  13 NE8       30.05F HX  90
SALMON         SUNNY     93  39  15 W5        29.95F
BOISE          SUNNY    103  43  13 NW13      29.91F HX  98
SPOKANE        MOSUNNY   97  41  14 NW8       29.96F HX  92
$$

REGIONAL REPORTS...ALBERTA

CITY           SKY/WX    TMP DP  RH WIND       PRES   REMARKS
EDMONTON       SUNNY     82  48  30 W6        29.98F
CALGARY        MOSUNNY   81  55  41 SE13G22   30.07F
LETHBRIDGE     MOSUNNY   82  55  39 E8        30.06F
MEDICINE HAT   MOSUNNY   84  55  37 S8        30.03F
CARDSTON         N/A     82  54  36 E5          N/A
MILK RIVER       N/A     84  48  28 S6          N/A
ONEFOUR          N/A     84  45  24 NW7         N/A
$$

REGIONAL REPORTS...SASKATCHEWAN

CITY           SKY/WX    TMP DP  RH WIND       PRES   REMARKS
SWIFT CURRENT  SUNNY     77  57  50 NW9       30.06F HAZE
REGINA         CLOUDY    79  63  57 N13       30.00F SMOKE
SASKATOON      MOSUNNY   82  55  39 VRB7      30.01S
CYPRESS HILLS    N/A     77  52  41 NW2         N/A
VAL MARIE        N/A     77  55  47 N9          N/A
ROCKGLEN         N/A     73  57  56 NW10        N/A
ASSINIBOIA       N/A     82  59  44 S5          N/A
$$



USA.gov is the U.S. government's official web portal to all federal, state and local government web resources and services.